Weather in Waterford

Ireland     52°15′54″N   7°05′34″W
temp.,
°C
wind,
m/s
gust,
m/s
humid.,
%
clouds,
%
prec.,
mm/h
press.,
hPa
HPBL,
m
29 june, wed
wed2901:00+12sw4884100 0.0 1007404
04:00+11sw3490100 0.1 1006155
07:00+12nw2386100 0.2 1007190
10:00+15wsw3370100 0.0 1008998
13:00+16w346951 0.7 10081041
16:00+16wnw4579100 2.0 1009924
19:00+14wnw3586100 3.6 1008434
22:00+11nw3891100 0.8 1010260
30 june, thu
thu3001:00+10nw3891100 0.8 1010257
04:00+9nw3791100 0.0 1010223
07:00+9nw369162 0.0 1011185
10:00+14wnw33719 0.0 1011852
13:00+15sw447082 0.5 1011983
16:00+16sw446955 0.4 10111037
19:00+16wnw358155 1.6 1012838
22:00+11wnw37896 0.4 1013134
1 july, fri
fri101:00+9wnw35925 0.4 1014106
04:00+8wnw22937 0.0 101434
07:00+10wnw129255 0.0 1015104
10:00+14wsw347663 0.0 1015619
13:00+16sw676370 0.1 10151248
16:00+16sw886623 0.0 10151097
19:00+14sw61184100 0.0 1015819
22:00+14ssw6119689 0.3 1014573
2 july, sat
sat201:00+13sw61193100 0.5 1014462
04:00+12wsw249219 0.3 1014176
07:00+11sw51190100 0.3 1014440
10:00+13wsw69838 0.0 1015722
13:00+16wsw696579 0.4 10151455
16:00+17w686187 0.4 10161554
19:00+17wnw58686 0.5 10171191
22:00+13wnw511875 0.1 1019546
3 july, sun
sun301:00+10wnw510882 0.1 1020430
04:00+8w36942 0.0 1020170
07:00+10w38910 0.0 1021323
10:00+15wnw576819 0.0 10221139
13:00+17wnw575997 0.1 10221521
16:00+16wnw5768100 0.0 1022990
19:00+16wnw46743 0.2 1022875
22:00+11nw36835 0.0 1023103